Regional Weather Roundup
Issued by NWS

Home | Current Version | Previous Version | Graphics & Text | Print | Product List | Glossary On
Versions: 1 2 3 4 5 6 7 8 9 10 11 12 13 14 15 16 17 18 19 20 21 22 23 24 25 26 27 28 29 30 31 32 33 34 35 36 37 38 39 40 41 42 43 44 45 46 47 48 49 50
000
ASUS44 KMEG 190200
RWRTN
TENNESSEE HOURLY STATE WEATHER ROUNDUP
NATIONAL WEATHER SERVICE MEMPHIS TN
800 PM CST WED JAN 18 2017

TNZ002-004-019-021-049-052-054-088>092-190300-
WEST TENNESSEE

CITY           SKY/WX    TMP DP  RH WIND       PRES   REMARKS
MEMPHIS INTL   CLOUDY    51  49  92 NE3       30.07F
NWS MEMPHIS      N/A     51 N/A N/A MISG        N/A
JACKSON        CLOUDY    51  45  79 CALM      30.09S
DYERSBURG      CLOUDY    48  43  81 E7        30.08F
UNION CITY     PTCLDY    46  46 100 CALM      30.09F
PARIS          PTCLDY    43  39  87 CALM      30.10F
$$

TNZ008-025-027-028-033-062-065-066-190300-
NORTH MIDDLE TENNESSEE

CITY           SKY/WX    TMP DP  RH WIND       PRES   REMARKS
NASHVILLE      CLOUDY    46  41  82 S3        30.13F
CLARKSVILLE    CLOUDY    45  39  79 CALM      30.13S
SMYRNA         MOCLDY    45  42  89 SW3       30.15S
CROSSVILLE     PTCLDY    43  42  97 CALM      30.13R
$$

TNZ061-075-076-078-094-096-097-190300-
SOUTH MIDDLE TENNESSEE

CITY           SKY/WX    TMP DP  RH WIND       PRES   REMARKS
TULLAHOMA      MOCLDY    46  43  87 CALM      30.14R
WINCHESTER     MOCLDY    46  45  93 CALM      30.13R
MCMINNVILLE    CLEAR     45  45 100 NE3       30.12F
COLUMBIA       CLEAR    N/A N/A N/A E5        30.11F
SHELBYVILLE    CLOUDY    48  45  87 CALM      30.14S
$$

TNZ017-018-042-046-047-190300-
NORTHEAST TENNESSEE

CITY           SKY/WX    TMP DP  RH WIND       PRES   REMARKS
TRI CITIES     CLOUDY    46  38  73 CALM      30.10F
$$

TNZ012-013-036-069-073-074-190300-
CENTRAL EAST TENNESSEE

CITY           SKY/WX    TMP DP  RH WIND       PRES   REMARKS
KNOXVILLE      CLOUDY    52  43  71 CALM      30.11S
OAK RIDGE      PTCLDY    50  43  77 CALM      30.13F
GATLINBURG     CLEAR     45  39  81 CALM      30.11S
$$

TNZ083-085-099-190300-
SOUTHEAST TENNESSEE

CITY           SKY/WX    TMP DP  RH WIND       PRES   REMARKS
CHATTANOOGA    MOCLDY    55  44  66 N3        30.12S
$$

SKY/WX REPORTED AS FAIR MEANS FEW OR NO CLOUDS BELOW
12 THOUSAND FEET.




USA.gov is the U.S. government's official web portal to all federal, state and local government web resources and services.